| time (UTC) | temp F | wind direction | speed MPH | gust MPH | rain 1hr in | rain 24hr in | rain mn in | humidity % | barometer mb |
| 20260904081605 | 57 | 0 | 0.0 | 0.0 | 0.00 | 0.19 | 0.00 | 92 | 1012.3 |
| 20260904080106 | 57 | 0 | 0.0 | 0.0 | 0.00 | 0.19 | 0.00 | 92 | 1012.2 |
| 20260904074611 | 57 | 0 | 0.0 | 2.0 | 0.00 | 0.19 | 0.00 | 92 | 1012.1 |
| 20260904073109 | 58 | 0 | 0.0 | 0.0 | 0.00 | 0.19 | 0.00 | 92 | 1012.1 |
| 20260904071601 | 58 | 0 | 0.0 | 0.0 | 0.00 | 0.19 | 0.00 | 92 | 1012.1 |
| 20260904064628 | 59 | 0 | 0.0 | 0.0 | 0.00 | 0.19 | 0.19 | 91 | 1012.1 |
| 20260904063130 | 59 | 0 | 0.0 | 3.0 | 0.00 | 0.19 | 0.19 | 91 | 1012.2 |
| 20260904061600 | 60 | 0 | 0.0 | 3.0 | 0.00 | 0.19 | 0.19 | 91 | 1012.0 |
| 20260904060128 | 60 | 0 | 0.0 | 0.0 | 0.00 | 0.19 | 0.19 | 91 | 1012.0 |
| 20260904054605 | 61 | 229 | 0.0 | 1.0 | 0.00 | 0.19 | 0.19 | 91 | 1012.1 |
| 20260904053103 | 61 | 0 | 0.0 | 2.0 | 0.00 | 0.19 | 0.19 | 91 | 1012.1 |
| 20260904051604 | 61 | 0 | 0.0 | 3.0 | 0.00 | 0.19 | 0.19 | 91 | 1012.2 |
| 20260904050105 | 62 | 0 | 0.0 | 3.0 | 0.00 | 0.19 | 0.19 | 90 | 1012.2 |
| 20260904044605 | 62 | 156 | 0.0 | 1.0 | 0.00 | 0.19 | 0.19 | 91 | 1012.2 |
| 20260904043112 | 62 | 155 | 0.0 | 2.0 | 0.00 | 0.19 | 0.19 | 91 | 1012.2 |
| 20260904041602 | 62 | 0 | 0.0 | 2.0 | 0.00 | 0.19 | 0.19 | 91 | 1012.0 |
| 20260904040105 | 62 | 159 | 0.0 | 2.0 | 0.00 | 0.19 | 0.19 | 91 | 1012.0 |
| 20260904034602 | 62 | 0 | 1.0 | 4.0 | 0.00 | 0.19 | 0.19 | 91 | 1012.0 |
| 20260904033059 | 62 | 0 | 1.0 | 3.0 | 0.00 | 0.19 | 0.19 | 91 | 1011.9 |
| 20260904031605 | 62 | 161 | 0.0 | 3.0 | 0.00 | 0.19 | 0.19 | 90 | 1011.8 |
| 20260904024609 | 62 | 250 | 1.0 | 5.0 | 0.00 | 0.19 | 0.19 | 90 | 1011.7 |
| 20260904023122 | 62 | 246 | 1.0 | 3.0 | 0.00 | 0.19 | 0.19 | 90 | 1011.8 |
| 20260904021608 | 62 | 0 | 0.0 | 5.0 | 0.00 | 0.19 | 0.19 | 90 | 1011.9 |
| 20260904020106 | 62 | 0 | 1.0 | 4.0 | 0.00 | 0.19 | 0.19 | 90 | 1012.0 |
| 20260904014607 | 62 | 173 | 0.0 | 5.0 | 0.00 | 0.19 | 0.19 | 90 | 1012.2 |
| 20260904013124 | 62 | 143 | 0.0 | 5.0 | 0.00 | 0.19 | 0.19 | 90 | 1012.2 |
| 20260904011603 | 62 | 0 | 2.0 | 4.0 | 0.01 | 0.19 | 0.19 | 90 | 1012.2 |
| 20260904010101 | 62 | 198 | 2.0 | 6.0 | 0.01 | 0.19 | 0.19 | 91 | 1012.3 |
| 20260904004601 | 62 | 153 | 1.0 | 5.0 | 0.01 | 0.19 | 0.19 | 91 | 1012.3 |
| 20260904003103 | 62 | 99 | 1.0 | 9.0 | 0.01 | 0.19 | 0.19 | 91 | 1012.3 |
| 20260904001609 | 62 | 239 | 2.0 | 6.0 | 0.01 | 0.18 | 0.18 | 91 | 1012.4 |
| 20260904000055 | 62 | 166 | 2.0 | 6.0 | 0.02 | 0.18 | 0.18 | 90 | 1012.7 |
| 20260903234558 | 62 | 160 | 2.0 | 5.0 | 0.02 | 0.18 | 0.18 | 89 | 1012.8 |
| 20260903233102 | 63 | 170 | 0.0 | 4.0 | 0.02 | 0.18 | 0.18 | 88 | 1012.9 |
| 20260903231608 | 63 | 270 | 3.0 | 8.0 | 0.01 | 0.17 | 0.17 | 86 | 1013.1 |
| 20260903224604 | 65 | 273 | 3.0 | 9.0 | 0.00 | 0.16 | 0.16 | 80 | 1013.2 |
| 20260903223112 | 65 | 165 | 3.0 | 11.0 | 0.00 | 0.16 | 0.16 | 80 | 1013.3 |
| 20260903221603 | 67 | 291 | 4.0 | 11.0 | 0.00 | 0.16 | 0.16 | 76 | 1013.3 |
| 20260903220105 | 69 | 248 | 5.0 | 11.0 | 0.00 | 0.16 | 0.16 | 72 | 1013.3 |
| 20260903214600 | 69 | 294 | 4.0 | 10.0 | 0.00 | 0.16 | 0.16 | 72 | 1013.2 |
| 20260903213112 | 69 | 257 | 4.0 | 9.0 | 0.00 | 0.16 | 0.16 | 71 | 1013.3 |
| 20260903211601 | 70 | 290 | 4.0 | 9.0 | 0.00 | 0.16 | 0.16 | 74 | 1013.2 |
| 20260903204602 | 70 | 232 | 5.0 | 12.0 | 0.00 | 0.16 | 0.16 | 72 | 1013.4 |
| 20260903203104 | 69 | 295 | 4.0 | 10.0 | 0.00 | 0.16 | 0.16 | 76 | 1013.3 |
| 20260903201605 | 70 | 273 | 5.0 | 11.0 | 0.00 | 0.16 | 0.16 | 78 | 1013.4 |
| 20260903200107 | 69 | 266 | 6.0 | 10.0 | 0.00 | 0.16 | 0.16 | 81 | 1013.5 |
| 20260903194600 | 67 | 236 | 4.0 | 9.0 | 0.00 | 0.16 | 0.16 | 85 | 1013.7 |
| 20260903193101 | 66 | 255 | 4.0 | 10.0 | 0.01 | 0.16 | 0.16 | 89 | 1014.0 |
| 20260903191603 | 65 | 285 | 5.0 | 12.0 | 0.01 | 0.16 | 0.16 | 92 | 1014.1 |
| 20260903190108 | 65 | 238 | 4.0 | 8.0 | 0.01 | 0.16 | 0.16 | 94 | 1014.3 |
| 20260903184608 | 64 | 245 | 3.0 | 8.0 | 0.03 | 0.16 | 0.16 | 93 | 1014.4 |
| 20260903183106 | 64 | 226 | 3.0 | 10.0 | 0.03 | 0.15 | 0.15 | 94 | 1014.4 |
| 20260903181601 | 64 | 230 | 4.0 | 11.0 | 0.04 | 0.15 | 0.15 | 94 | 1014.4 |
| 20260903180111 | 64 | 156 | 3.0 | 7.0 | 0.05 | 0.15 | 0.15 | 94 | 1014.3 |
| 20260903174600 | 63 | 175 | 4.0 | 9.0 | 0.04 | 0.13 | 0.13 | 94 | 1014.3 |
| 20260903173110 | 63 | 142 | 1.0 | 5.0 | 0.04 | 0.12 | 0.12 | 94 | 1014.2 |
| 20260903171600 | 63 | 217 | 2.0 | 7.0 | 0.04 | 0.11 | 0.11 | 93 | 1014.3 |
| 20260903164600 | 63 | 0 | 1.0 | 5.0 | 0.03 | 0.09 | 0.09 | 93 | 1014.1 |
| 20260903163135 | 62 | 195 | 3.0 | 11.0 | 0.04 | 0.08 | 0.08 | 93 | 1014.2 |
| 20260903161602 | 62 | 161 | 3.0 | 10.0 | 0.05 | 0.07 | 0.07 | 93 | 1014.3 |
| 20260903160106 | 62 | 213 | 1.0 | 8.0 | 0.06 | 0.07 | 0.07 | 93 | 1014.4 |
| 20260903154602 | 62 | 153 | 1.0 | 7.0 | 0.05 | 0.07 | 0.06 | 93 | 1014.4 |
| 20260903153104 | 62 | 169 | 2.0 | 7.0 | 0.03 | 0.05 | 0.04 | 92 | 1014.6 |
| 20260903151603 | 62 | 222 | 2.0 | 6.0 | 0.01 | 0.03 | 0.02 | 92 | 1014.6 |
| 20260903150105 | 62 | 196 | 2.0 | 6.0 | 0.00 | 0.02 | 0.01 | 92 | 1014.4 |
| 20260903144604 | 62 | 179 | 2.0 | 6.0 | 0.00 | 0.06 | 0.01 | 92 | 1014.4 |
| 20260903143103 | 62 | 177 | 0.0 | 4.0 | 0.00 | 0.06 | 0.01 | 92 | 1014.4 |
| 20260903141608 | 62 | 0 | 1.0 | 5.0 | 0.00 | 0.06 | 0.01 | 92 | 1014.2 |
| 20260903140105 | 62 | 0 | 1.0 | 4.0 | 0.00 | 0.06 | 0.01 | 92 | 1014.2 |
| 20260903134635 | 62 | 0 | 1.0 | 6.0 | 0.00 | 0.07 | 0.01 | 92 | 1014.1 |
| 20260903133107 | 61 | 125 | 2.0 | 8.0 | 0.01 | 0.07 | 0.01 | 92 | 1014.1 |
| 20260903131604 | 61 | 186 | 1.0 | 6.0 | 0.01 | 0.07 | 0.01 | 92 | 1014.2 |
| 20260903130110 | 61 | 165 | 1.0 | 5.0 | 0.01 | 0.07 | 0.01 | 92 | 1014.3 |
| 20260903124610 | 62 | 155 | 1.0 | 5.0 | 0.01 | 0.07 | 0.01 | 91 | 1014.4 |
| 20260903123115 | 62 | 184 | 1.0 | 4.0 | 0.00 | 0.06 | 0.00 | 91 | 1014.6 |
| 20260903121601 | 62 | 177 | 0.0 | 5.0 | 0.00 | 0.06 | 0.00 | 90 | 1014.7 |
| 20260903120129 | 62 | 196 | 1.0 | 6.0 | 0.00 | 0.06 | 0.00 | 89 | 1014.7 |
| 20260903114608 | 62 | 140 | 0.0 | 4.0 | 0.00 | 0.06 | 0.00 | 89 | 1014.9 |
| 20260903113103 | 62 | 0 | 1.0 | 4.0 | 0.00 | 0.06 | 0.00 | 88 | 1015.0 |
| 20260903111603 | 62 | 161 | 1.0 | 5.0 | 0.00 | 0.06 | 0.00 | 87 | 1015.1 |
| 20260903110105 | 62 | 171 | 1.0 | 4.0 | 0.00 | 0.06 | 0.00 | 86 | 1015.2 |
| 20260903104609 | 62 | 200 | 0.0 | 4.0 | 0.00 | 0.06 | 0.00 | 86 | 1015.3 |
| 20260903103101 | 62 | 0 | 0.0 | 3.0 | 0.00 | 0.06 | 0.00 | 86 | 1015.3 |
| 20260903101601 | 62 | 144 | 1.0 | 3.0 | 0.00 | 0.06 | 0.00 | 87 | 1015.3 |
| 20260903100104 | 62 | 143 | 1.0 | 2.0 | 0.00 | 0.06 | 0.00 | 87 | 1015.4 |
| 20260903094602 | 61 | 0 | 0.0 | 0.0 | 0.00 | 0.06 | 0.00 | 87 | 1015.5 |
| 20260903093107 | 61 | 0 | 0.0 | 0.0 | 0.00 | 0.06 | 0.00 | 88 | 1015.7 |
| 20260903091609 | 61 | 0 | 0.0 | 0.0 | 0.00 | 0.06 | 0.00 | 88 | 1015.9 |
| 20260903084600 | 61 | 0 | 0.0 | 0.0 | 0.00 | 0.06 | 0.00 | 88 | 1016.0 |
| 20260903083058 | 61 | 0 | 0.0 | 0.0 | 0.00 | 0.06 | 0.00 | 88 | 1016.2 |